FW9229 Weather Reports


Display with metric or nautical units.
time (UTC)temp
F
wind
direction
speed
MPH
gust
MPH
rain 1hr
in
rain 24hr
in
rain mn
in
humidity
%
barometer
mb
20260906233518 96 0 0.0 3.0 0.00 0.00 0.00 44 1011.2
20260906233037 97 105 0.0 4.0 0.00 0.00 0.00 44 1011.2
20260906232518 97 0 0.0 5.0 0.00 0.00 0.00 44 1011.3
20260906232018 97 132 1.0 7.0 0.00 0.00 0.00 43 1011.3
20260906231535 98 177 2.0 7.0 0.00 0.00 0.00 43 1011.3
20260906231019 98 0 1.0 6.0 0.00 0.00 0.00 42 1011.4
20260906230517 98 0 1.0 6.0 0.00 0.00 0.00 41 1011.4
20260906230040 98 0 0.0 5.0 0.00 0.00 0.00 42 1011.2
20260906225518 99 0 0.0 6.0 0.00 0.00 0.00 41 1011.2
20260906225025 99 116 0.0 7.0 0.00 0.00 0.00 41 1011.2
20260906224544 99 219 2.0 7.0 0.00 0.00 0.00 41 1011.2
20260906224018 99 0 0.0 7.0 0.00 0.00 0.00 40 1011.2
20260906223518 100 124 2.0 7.0 0.00 0.00 0.00 40 1011.3
20260906223041 100 194 1.0 7.0 0.00 0.00 0.00 40 1011.3
20260906222517 100 0 1.0 7.0 0.00 0.00 0.00 40 1011.3
20260906222022 101 133 0.0 5.0 0.00 0.00 0.00 39 1011.3
20260906221544 102 0 1.0 5.0 0.00 0.00 0.00 38 1011.3
20260906221019 103 122 1.0 4.0 0.00 0.00 0.00 37 1011.4
20260906220519 102 0 0.0 7.0 0.00 0.00 0.00 38 1011.4
20260906220039 102 150 1.0 7.0 0.00 0.00 0.00 37 1011.3
20260906215523 102 162 0.0 11.0 0.00 0.00 0.00 38 1011.4
20260906215018 102 221 2.0 11.0 0.00 0.00 0.00 38 1011.5
20260906214544 102 170 1.0 9.0 0.00 0.00 0.00 38 1011.3
20260906214020 102 127 2.0 9.0 0.00 0.00 0.00 37 1011.4
20260906213520 102 148 1.0 8.0 0.00 0.00 0.00 39 1011.4
20260906213041 103 106 1.0 11.0 0.00 0.00 0.00 38 1011.5
20260906212522 102 0 3.0 11.0 0.00 0.00 0.00 38 1011.7
20260906212020 102 0 1.0 7.0 0.00 0.00 0.00 39 1011.7
20260906211546 102 213 0.0 8.0 0.00 0.00 0.00 38 1011.8
20260906211017 102 0 2.0 8.0 0.00 0.00 0.00 38 1011.9
20260906210521 102 0 1.0 5.0 0.00 0.00 0.00 39 1011.9
20260906210049 102 0 0.0 7.0 0.00 0.00 0.00 39 1012.1
20260906205520 102 76 2.0 7.0 0.00 0.00 0.00 39 1012.2
20260906205019 101 164 1.0 7.0 0.00 0.00 0.00 40 1012.3
20260906204539 101 222 1.0 7.0 0.00 0.00 0.00 39 1012.3
20260906204017 101 0 1.0 6.0 0.00 0.00 0.00 40 1012.3
20260906203519 101 86 2.0 11.0 0.00 0.00 0.00 40 1012.5
20260906203041 100 197 1.0 11.0 0.00 0.00 0.00 41 1012.4
20260906202516 101 222 2.0 9.0 0.00 0.00 0.00 40 1012.5
20260906202018 101 0 1.0 6.0 0.00 0.00 0.00 40 1012.6
20260906201536 101 58 2.0 7.0 0.00 0.00 0.00 40 1012.6
20260906201020 101 94 2.0 7.0 0.00 0.00 0.00 41 1012.7
20260906200519 100 204 0.0 6.0 0.00 0.00 0.00 42 1012.7
20260906200042 101 94 2.0 7.0 0.00 0.00 0.00 41 1012.8
20260906195520 100 0 1.0 7.0 0.00 0.00 0.00 42 1012.8
20260906195019 99 129 2.0 7.0 0.00 0.00 0.00 42 1012.7
20260906194539 99 85 1.0 9.0 0.00 0.00 0.00 42 1012.7
20260906194019 98 0 0.0 9.0 0.00 0.00 0.00 43 1012.9
20260906193521 99 239 2.0 9.0 0.00 0.00 0.00 44 1012.9
20260906193038 99 207 3.0 14.0 0.00 0.00 0.00 43 1012.8
20260906192520 99 174 3.0 14.0 0.00 0.00 0.00 44 1013.0
20260906192020 99 73 2.0 10.0 0.00 0.00 0.00 44 1013.0
20260906191542 98 123 2.0 10.0 0.00 0.00 0.00 43 1013.1
20260906191018 99 197 1.0 8.0 0.00 0.00 0.00 44 1013.2
20260906190519 99 121 3.0 8.0 0.00 0.00 0.00 44 1013.2
20260906190041 99 74 1.0 8.0 0.00 0.00 0.00 44 1013.3
20260906185519 99 125 2.0 7.0 0.00 0.00 0.00 45 1013.2
20260906185024 99 235 1.0 7.0 0.00 0.00 0.00 44 1013.2
20260906184537 98 133 1.0 9.0 0.00 0.00 0.00 45 1013.2
20260906184018 98 186 1.0 9.0 0.00 0.00 0.00 45 1013.2
20260906183526 98 117 2.0 9.0 0.00 0.00 0.00 46 1013.3
20260906183039 98 68 2.0 7.0 0.00 0.00 0.00 45 1013.4
20260906182519 98 136 2.0 7.0 0.00 0.00 0.00 46 1013.4
20260906182020 97 82 2.0 10.0 0.00 0.00 0.00 47 1013.5
20260906181539 97 79 3.0 10.0 0.00 0.00 0.00 47 1013.6
20260906181019 97 120 2.0 8.0 0.00 0.00 0.00 49 1013.7
20260906180520 95 212 2.0 8.0 0.00 0.00 0.00 50 1013.9
20260906180039 96 200 1.0 8.0 0.00 0.00 0.00 51 1013.9
20260906175521 95 213 1.0 8.0 0.00 0.00 0.00 50 1013.9
20260906175020 95 152 0.0 10.0 0.00 0.00 0.00 51 1014.1
20260906174539 95 120 1.0 10.0 0.00 0.00 0.00 51 1014.1
20260906174021 96 171 2.0 6.0 0.00 0.00 0.00 50 1014.3
20260906173518 95 121 1.0 4.0 0.00 0.00 0.00 50 1014.2
20260906173049 95 81 0.0 7.0 0.00 0.00 0.00 52 1014.3
20260906172519 95 191 2.0 7.0 0.00 0.00 0.00 51 1014.4
20260906172022 95 191 1.0 7.0 0.00 0.00 0.00 50 1014.5
20260906171540 95 119 1.0 7.0 0.00 0.00 0.00 51 1014.5
20260906171023 95 199 0.0 8.0 0.00 0.00 0.00 52 1014.5
20260906170519 94 131 2.0 8.0 0.00 0.00 0.00 53 1014.5
20260906170042 93 184 0.0 6.0 0.00 0.00 0.00 53 1014.5
20260906165518 93 136 1.0 9.0 0.00 0.00 0.00 54 1014.5
20260906165021 93 223 4.0 9.0 0.00 0.00 0.00 53 1014.6
20260906164537 93 198 1.0 5.0 0.00 0.00 0.00 54 1014.5
20260906164018 93 125 1.0 5.0 0.00 0.00 0.00 56 1014.4
20260906163520 92 0 0.0 7.0 0.00 0.00 0.00 57 1014.6
20260906163041 92 0 2.0 7.0 0.00 0.00 0.00 58 1014.6
20260906162521 92 0 0.0 5.0 0.00 0.00 0.00 58 1014.7
20260906162019 93 0 2.0 7.0 0.00 0.00 0.00 56 1014.5
20260906161539 92 147 1.0 11.0 0.00 0.00 0.00 59 1014.4
20260906161023 92 0 2.0 11.0 0.00 0.00 0.00 58 1014.5
20260906160517 93 79 1.0 4.0 0.00 0.00 0.00 59 1014.5
20260906160042 92 0 1.0 5.0 0.00 0.00 0.00 61 1014.5
20260906155521 91 137 1.0 7.0 0.00 0.00 0.00 62 1014.6
20260906155025 91 0 1.0 7.0 0.00 0.00 0.00 62 1014.6
20260906154548 91 145 0.0 4.0 0.00 0.00 0.00 63 1014.5
20260906154018 90 146 1.0 4.0 0.00 0.00 0.00 64 1014.6
20260906153523 90 0 1.0 4.0 0.00 0.00 0.00 65 1014.5
20260906153040 89 133 0.0 4.0 0.00 0.00 0.00 67 1014.4
20260906152521 88 138 1.0 4.0 0.00 0.00 0.00 67 1014.3
20260906152017 88 0 0.0 4.0 0.00 0.00 0.00 69 1014.3
20260906151540 88 0 0.0 3.0 0.00 0.00 0.00 69 1014.3
20260906151020 87 0 0.0 3.0 0.00 0.00 0.00 70 1014.2
20260906150516 86 0 0.0 4.0 0.00 0.00 0.00 72 1014.3
20260906150036 86 0 1.0 4.0 0.00 0.00 0.00 72 1014.3
20260906145519 85 169 0.0 3.0 0.00 0.00 0.00 73 1014.2
20260906145019 85 0 1.0 3.0 0.00 0.00 0.00 74 1014.2
20260906144541 85 0 0.0 3.0 0.00 0.00 0.00 75 1014.2
20260906144021 84 123 0.0 4.0 0.00 0.00 0.00 76 1014.2
20260906143520 84 0 0.0 4.0 0.00 0.00 0.00 76 1014.2
20260906143049 83 0 0.0 4.0 0.00 0.00 0.00 77 1014.2
20260906142524 83 0 0.0 4.0 0.00 0.00 0.00 76 1014.3
20260906142020 83 170 0.0 2.0 0.00 0.00 0.00 77 1014.4
20260906141539 83 0 0.0 5.0 0.00 0.00 0.00 78 1014.4
20260906141017 82 202 1.0 5.0 0.00 0.00 0.00 79 1014.3
20260906140523 83 204 1.0 4.0 0.00 0.00 0.00 78 1014.4
20260906140044 83 0 0.0 1.0 0.00 0.00 0.00 79 1014.3
20260906135520 82 0 0.0 3.0 0.00 0.00 0.00 79 1014.2
20260906135018 82 179 0.0 3.0 0.00 0.00 0.00 80 1014.2
20260906134549 82 0 0.0 2.0 0.00 0.00 0.00 81 1014.2
20260906134019 82 0 0.0 0.0 0.00 0.00 0.00 82 1014.2
20260906133518 81 0 0.0 1.0 0.00 0.00 0.00 82 1014.1
20260906133040 81 0 0.0 1.0 0.00 0.00 0.00 83 1014.0
20260906132517 81 0 0.0 1.0 0.00 0.00 0.00 83 1014.1
20260906132018 80 0 0.0 1.0 0.00 0.00 0.00 84 1014.2
20260906131547 80 0 0.0 0.0 0.00 0.00 0.00 84 1014.2
20260906131019 80 0 0.0 1.0 0.00 0.00 0.00 85 1014.2
20260906130518 79 0 0.0 1.0 0.00 0.00 0.00 86 1014.1
20260906130045 79 0 0.0 0.0 0.00 0.00 0.00 87 1014.0
20260906125517 79 0 0.0 0.0 0.00 0.00 0.00 87 1013.9
20260906125021 79 0 0.0 0.0 0.00 0.00 0.00 87 1013.8
20260906124541 78 0 0.0 0.0 0.00 0.00 0.00 87 1013.8
20260906124023 78 0 0.0 0.0 0.00 0.00 0.00 87 1013.9
20260906123519 78 0 0.0 0.0 0.00 0.00 0.00 87 1013.8
20260906123037 78 0 0.0 0.0 0.00 0.00 0.00 87 1013.7
20260906122518 79 0 0.0 0.0 0.00 0.00 0.00 86 1013.7
20260906122018 79 0 0.0 0.0 0.00 0.00 0.00 86 1013.7
20260906121544 79 0 0.0 0.0 0.00 0.00 0.00 86 1013.7
20260906121020 78 0 0.0 0.0 0.00 0.00 0.00 87 1013.6
20260906120520 78 0 0.0 0.0 0.00 0.00 0.00 86 1013.6
20260906120040 78 0 0.0 0.0 0.00 0.00 0.00 86 1013.5
20260906115520 78 0 0.0 0.0 0.00 0.00 0.00 86 1013.5
20260906115020 78 0 0.0 0.0 0.00 0.00 0.00 86 1013.5
20260906114538 78 0 0.0 0.0 0.00 0.00 0.00 87 1013.5
20260906114021 78 0 0.0 0.0 0.00 0.00 0.00 87 1013.4
20260906113518 78 0 0.0 0.0 0.00 0.00 0.00 87 1013.2
20260906113044 78 0 0.0 0.0 0.00 0.00 0.00 87 1013.2
20260906112519 78 0 0.0 0.0 0.00 0.00 0.00 86 1013.3
20260906112026 78 0 0.0 0.0 0.00 0.00 0.00 86 1013.1
20260906111541 78 0 0.0 0.0 0.00 0.00 0.00 86 1013.2
20260906111020 78 0 0.0 0.0 0.00 0.00 0.00 86 1013.2
20260906110522 78 0 0.0 0.0 0.00 0.00 0.00 85 1013.3
20260906110039 79 0 0.0 0.0 0.00 0.00 0.00 86 1013.1
20260906105523 79 0 0.0 0.0 0.00 0.00 0.00 85 1013.1
20260906105017 79 0 0.0 0.0 0.00 0.00 0.00 86 1013.0
20260906104537 79 0 0.0 0.0 0.00 0.00 0.00 86 1013.2
20260906104018 79 0 0.0 0.0 0.00 0.00 0.00 86 1013.1
20260906103521 79 0 0.0 0.0 0.00 0.00 0.00 85 1013.1
20260906103038 79 0 0.0 0.0 0.00 0.00 0.00 85 1013.0
20260906102517 79 0 0.0 0.0 0.00 0.00 0.00 85 1012.9
20260906102019 79 0 0.0 0.0 0.00 0.00 0.00 85 1012.9
20260906101541 79 0 0.0 0.0 0.00 0.00 0.00 85 1012.9
20260906101018 79 0 0.0 0.0 0.00 0.00 0.00 85 1012.9
20260906100518 79 0 0.0 0.0 0.00 0.00 0.00 85 1012.9
20260906100039 79 0 0.0 0.0 0.00 0.00 0.00 85 1012.9
20260906095517 79 0 0.0 0.0 0.00 0.00 0.00 84 1012.8
20260906095017 79 0 0.0 0.0 0.00 0.00 0.00 84 1012.8
20260906094539 79 0 0.0 0.0 0.00 0.00 0.00 84 1012.7
20260906094020 79 0 0.0 0.0 0.00 0.00 0.00 84 1012.6
20260906093518 80 0 0.0 0.0 0.00 0.00 0.00 84 1012.4
20260906093038 80 0 0.0 0.0 0.00 0.00 0.00 83 1012.5
20260906092520 80 0 0.0 0.0 0.00 0.00 0.00 83 1012.3
20260906092020 80 0 0.0 0.0 0.00 0.00 0.00 83 1012.4
20260906091540 80 0 0.0 0.0 0.00 0.00 0.00 83 1012.2
20260906091019 80 0 0.0 0.0 0.00 0.00 0.00 83 1012.2
20260906090519 80 0 0.0 1.0 0.00 0.00 0.00 83 1012.1
20260906090037 80 0 0.0 1.0 0.00 0.00 0.00 82 1012.2
20260906085518 81 0 0.0 2.0 0.00 0.00 0.00 82 1012.2
20260906085023 81 0 0.0 3.0 0.00 0.00 0.00 82 1012.3
20260906084541 81 0 0.0 3.0 0.00 0.00 0.00 82 1012.3
20260906084020 81 0 0.0 5.0 0.00 0.00 0.00 82 1012.3
20260906083521 81 0 0.0 5.0 0.00 0.00 0.00 81 1012.3
20260906083040 81 212 0.0 4.0 0.00 0.00 0.00 81 1012.3
20260906082517 81 0 0.0 3.0 0.00 0.00 0.00 81 1012.3
20260906082020 81 215 0.0 3.0 0.00 0.00 0.00 81 1012.3
20260906081547 81 220 0.0 2.0 0.00 0.00 0.00 81 1012.2
20260906081020 81 0 0.0 1.0 0.00 0.00 0.00 81 1012.4
20260906080521 81 0 0.0 0.0 0.00 0.00 0.00 80 1012.4
20260906080036 82 0 0.0 3.0 0.00 0.00 0.00 80 1012.3
20260906075518 82 0 0.0 3.0 0.00 0.00 0.00 80 1012.3
20260906075019 82 0 0.0 3.0 0.00 0.00 0.00 79 1012.2
20260906074539 82 0 0.0 1.0 0.00 0.00 0.00 79 1012.2
20260906074021 82 0 0.0 5.0 0.00 0.00 0.00 79 1012.4
20260906073518 82 0 0.0 5.0 0.00 0.00 0.00 79 1012.4
20260906073037 82 0 0.0 4.0 0.00 0.00 0.00 79 1012.4
20260906072518 82 0 0.0 1.0 0.00 0.00 0.00 78 1012.4
20260906072018 82 0 0.0 0.0 0.00 0.00 0.00 79 1012.4
20260906071541 82 0 0.0 0.0 0.00 0.00 0.00 79 1012.4
20260906071020 82 0 0.0 0.0 0.00 0.00 0.00 78 1012.4
20260906070519 82 0 0.0 0.0 0.00 0.00 0.00 78 1012.4
20260906070038 82 0 0.0 0.0 0.00 0.00 0.00 77 1012.4
20260906065518 82 0 0.0 2.0 0.00 0.00 0.00 77 1012.5
20260906065016 83 0 0.0 2.0 0.00 0.00 0.00 77 1012.6
20260906064541 83 0 0.0 5.0 0.00 0.00 0.00 76 1012.7
20260906064021 83 0 0.0 5.0 0.00 0.00 0.00 76 1012.7
20260906063520 83 168 0.0 4.0 0.00 0.00 0.00 75 1012.6
20260906063038 83 0 0.0 3.0 0.00 0.00 0.00 75 1012.5
20260906062517 83 0 0.0 5.0 0.00 0.00 0.00 74 1012.8
20260906062018 83 0 1.0 6.0 0.00 0.00 0.00 74 1012.8
20260906061539 83 208 1.0 7.0 0.00 0.00 0.00 74 1012.8
20260906061019 84 0 0.0 7.0 0.00 0.00 0.00 73 1012.8
20260906060520 84 0 0.0 6.0 0.00 0.00 0.00 73 1013.0
20260906060034 84 198 2.0 6.0 0.00 0.00 0.00 72 1013.0
20260906055517 84 0 0.0 7.0 0.00 0.00 0.00 72 1012.9
20260906055019 84 179 1.0 7.0 0.00 0.00 0.00 72 1013.0
20260906054538 84 0 1.0 4.0 0.00 0.00 0.00 71 1012.9
20260906054018 84 0 1.0 5.0 0.00 0.00 0.00 71 1012.9
20260906053520 84 0 0.0 5.0 0.00 0.00 0.00 70 1012.9
20260906053039 84 217 1.0 5.0 0.00 0.00 0.00 70 1012.8
20260906052520 84 160 2.0 5.0 0.00 0.00 0.00 70 1012.8
20260906052021 84 0 0.0 4.0 0.00 0.00 0.00 69 1012.9
20260906051540 84 0 0.0 4.0 0.00 0.00 0.00 69 1012.9
20260906051020 85 184 0.0 4.0 0.00 0.00 0.00 68 1012.8
20260906050517 85 0 0.0 4.0 0.00 0.00 0.00 68 1012.7
20260906050101 85 0 1.0 7.0 0.00 0.00 0.00 68 1012.8
20260906045519 85 0 0.0 7.0 0.00 0.00 0.00 67 1012.8
20260906045016 85 0 2.0 6.0 0.00 0.00 0.00 67 1012.8
20260906044541 85 0 1.0 6.0 0.00 0.00 0.00 67 1012.8
20260906044024 85 172 2.0 6.0 0.00 0.00 0.00 67 1012.8
20260906043521 86 248 1.0 7.0 0.00 0.00 0.00 67 1012.9
20260906043038 86 213 2.0 7.0 0.00 0.00 0.00 67 1012.9
20260906042520 86 0 1.0 7.0 0.00 0.00 0.00 67 1012.9
20260906042020 86 202 0.0 7.0 0.00 0.00 0.00 67 1013.0
20260906041540 86 183 1.0 5.0 0.00 0.00 0.00 68 1013.0
20260906041019 86 150 0.0 6.0 0.00 0.00 0.00 67 1013.0
20260906040519 86 0 0.0 6.0 0.00 0.00 0.00 68 1013.0
20260906040044 86 199 0.0 8.0 0.00 0.00 0.00 67 1012.9
20260906035520 86 220 1.0 8.0 0.00 0.00 0.00 67 1012.9
20260906035018 86 204 0.0 6.0 0.00 0.00 0.00 67 1013.0
20260906034542 86 200 0.0 7.0 0.00 0.00 0.00 67 1012.8
20260906034019 86 222 2.0 9.0 0.00 0.00 0.00 67 1012.8
20260906033520 86 198 3.0 9.0 0.00 0.00 0.00 67 1012.8
20260906033040 86 183 0.0 6.0 0.00 0.00 0.00 67 1012.9
20260906032517 86 0 1.0 6.0 0.00 0.00 0.00 66 1012.9
20260906032020 87 0 1.0 8.0 0.00 0.00 0.00 66 1012.9
20260906031542 87 208 2.0 8.0 0.00 0.00 0.00 65 1013.0
20260906031019 87 219 2.0 8.0 0.00 0.00 0.00 65 1012.9
20260906030523 87 204 3.0 9.0 0.00 0.00 0.00 65 1013.0
20260906030040 87 219 4.0 12.0 0.00 0.00 0.00 64 1013.0
20260906025520 87 218 3.0 12.0 0.00 0.00 0.00 64 1013.0
20260906025018 87 215 3.0 9.0 0.00 0.00 0.00 63 1012.9
20260906024540 87 0 2.0 8.0 0.00 0.00 0.00 63 1012.9
20260906024020 88 0 2.0 7.0 0.00 0.00 0.00 63 1012.8
20260906023520 88 214 2.0 9.0 0.00 0.00 0.00 63 1012.8
20260906023040 88 122 2.0 9.0 0.00 0.00 0.00 63 1012.7
20260906022520 88 198 2.0 9.0 0.00 0.00 0.00 62 1012.7
20260906022020 88 186 2.0 9.0 0.00 0.00 0.00 62 1012.6
20260906021545 88 159 2.0 9.0 0.00 0.00 0.00 62 1012.4
20260906021017 88 206 3.0 9.0 0.00 0.00 0.00 61 1012.3
20260906020521 88 173 2.0 8.0 0.00 0.00 0.00 61 1012.2
20260906020037 88 214 2.0 6.0 0.00 0.00 0.00 60 1012.3
20260906015520 88 225 0.0 9.0 0.00 0.00 0.00 61 1012.3
20260906015018 88 159 3.0 9.0 0.00 0.00 0.00 60 1012.1
20260906014539 88 197 1.0 9.0 0.00 0.00 0.00 60 1012.0
20260906014018 88 192 2.0 9.0 0.00 0.00 0.00 60 1012.0
20260906013519 88 226 3.0 10.0 0.00 0.00 0.00 59 1011.9
20260906013036 89 212 5.0 10.0 0.00 0.00 0.00 60 1011.7
20260906012518 89 0 2.0 11.0 0.00 0.00 0.00 60 1011.7
20260906012020 89 138 1.0 11.0 0.00 0.00 0.00 59 1011.6
20260906011539 89 213 2.0 12.0 0.00 0.00 0.00 59 1011.6
20260906011017 90 201 4.0 13.0 0.00 0.00 0.00 58 1011.6
20260906010520 91 166 5.0 13.0 0.00 0.00 0.00 54 1011.6
20260906010036 92 224 3.0 8.0 0.00 0.00 0.00 52 1011.6
20260906005524 93 188 3.0 8.0 0.00 0.00 0.00 51 1011.6
20260906005020 93 129 2.0 11.0 0.00 0.00 0.00 50 1011.4
20260906004539 94 196 2.0 11.0 0.00 0.00 0.00 50 1011.3
20260906004025 94 141 3.0 15.0 0.00 0.00 0.00 49 1011.2
20260906003522 95 173 2.0 15.0 0.00 0.00 0.00 48 1011.1
20260906003038 95 160 2.0 8.0 0.00 0.00 0.00 47 1011.2
20260906002523 96 129 2.0 5.0 0.00 0.00 0.00 45 1011.2
20260906002020 96 0 0.0 3.0 0.00 0.00 0.00 45 1011.1
20260906001538 96 193 0.0 5.0 0.00 0.00 0.00 44 1011.1
20260906001019 96 0 1.0 5.0 0.00 0.00 0.00 44 1011.1
20260906000520 96 205 1.0 6.0 0.00 0.00 0.00 44 1011.2
20260906000036 96 184 1.0 8.0 0.00 0.00 0.00 43 1011.1
20260905235519 96 0 1.0 8.0 0.00 0.00 0.00 43 1011.1
20260905235019 97 160 1.0 6.0 0.00 0.00 0.00 43 1011.0
20260905234540 97 0 0.0 8.0 0.00 0.00 0.00 43 1011.0
20260905234018 97 212 3.0 8.0 0.00 0.00 0.00 42 1011.0